Regional Weather Roundup
Issued by NWS

Home | Current Version | Previous Version | Graphics & Text | Print | Product List | Glossary Off
Versions: 1 2 3 4 5 6 7 8 9 10 11 12 13 14 15 16 17 18 19 20 21 22 23 24 25 26 27 28 29 30 31 32 33 34 35 36 37 38 39 40 41 42 43 44 45 46 47 48 49 50

000
ASUS43 KTOP 010108
RWRKS

WEATHER ROUNDUP FOR KANSAS
NATIONAL WEATHER SERVICE GOODLAND KS
800 PM CDT SAT APR 30 2016

NOTE:  "FAIR" INDICATES FEW OR NO CLOUDS BELOW 12,000 FEET WITH NO
SIGNIFICANT WEATHER AND/OR OBSTRUCTIONS TO VISIBILITY.

KSZ001>006-013>018-027>032-041>047-010200-
NORTHWEST KANSAS

CITY           SKY/WX    TMP DP  RH WIND       PRES   REMARKS
GOODLAND       CLOUDY    36  33  89 N18       29.93R WCI  26
HAYS           CLOUDY    48  34  57 NW15G21   29.86R
HILL CITY      CLOUDY    44  38  79 NW8       29.88S
RUSSELL        CLOUDY    49  40  71 NW14      29.84R
$$

KSZ061>065-074>080-084>089-010200-
SOUTHWEST KANSAS

CITY           SKY/WX    TMP DP  RH WIND       PRES   REMARKS
DODGE CITY     CLOUDY    47  34  60 NW16      29.90R
ELKHART          N/A     49  30  48 NW17        N/A
GARDEN CITY    CLOUDY    45  34  65 NW20G26   29.92R
GREAT BEND     MOCLDY    48  37  66 NW9       29.86R
LIBERAL        MOCLDY    52  32  46 NW21      29.94R
PRATT          CLOUDY    49  40  70 NW10      29.87R
$$

KSZ066>073-081>083-090>101-010200-
SOUTHEAST KANSAS

CITY           SKY/WX    TMP DP  RH WIND       PRES   REMARKS
CHANUTE        CLEAR     62  47  57 NW8       29.81R
COFFEYVILLE    CLEAR     63  47  55 W7        29.81R
HUTCHINSON     CLEAR     55  41  59 W13       29.84R
MEDICINE LODGE   N/A     56  40  55 NW10      29.86R
NEWTON         CLOUDY    54  39  58 W10       29.86R
PARSONS        CLEAR     62  50  64 NW6       29.82R
WICHITA INTL   PTCLDY    57  40  52 W10       29.84R
WICHITA JABRA  PTCLDY    56  40  55 W12       29.84R
WICHITA MCCONL PTCLDY    57  40  53 NW14      29.84R
WINFIELD       CLEAR     57  43  59 NW12      29.85R
$$

KSZ007>012-019>026-033>040-048>060-102>105-010200-
NORTHEAST KANSAS

CITY           SKY/WX    TMP DP  RH WIND       PRES   REMARKS
CONCORDIA      CLOUDY    51  44  77 W9        29.81R
EMPORIA        MOCLDY    58  46  64 W10G16    29.81R
LAWRENCE       CLOUDY    62  49  62 NW5       29.79R
MANHATTAN      MOCLDY    57  44  62 W7        29.81R
MARYSVILLE     MOCLDY    54  46  76 W6        29.80R
OLATHE IND     CLEAR     61  46  57 W7        29.80R
OLATHE EXE     CLEAR     61  46  57 W7        29.79R
SALINA         CLOUDY    55  43  63 NW13      29.84R
TOPEKA BILLARD PTCLDY    61  46  57 NW7       29.79R
TOPEKA FORBES  CLEAR     60  47  61 W8        29.79R
$$




USA.gov is the U.S. government's official web portal to all federal, state and local government web resources and services.